Time,TemperatureF,DewpointF,PressureIn,WindDirection,WindDirectionDegrees,WindSpeedMPH,WindSpeedGustMPH,Humidity,HourlyPrecipIn,Conditions,Clouds,dailyrainin,SoftwareType,DateUTC
2013-08-22 00:04:00,66.0,64.0,30.13,SSW,198,0.0,0.0,93,0.00,,,0.02,,2013-08-22 04:04:00,
2013-08-22 00:14:00,66.0,64.0,30.13,SSW,198,0.0,0.0,93,0.00,,,0.02,,2013-08-22 04:14:00,
2013-08-22 00:23:00,66.0,64.0,30.13,SSW,198,0.0,0.0,93,0.00,,,0.02,,2013-08-22 04:23:00,
2013-08-22 00:54:00,66.0,64.0,30.13,SSW,198,0.0,0.0,93,0.00,,,0.02,,2013-08-22 04:54:00,
2013-08-22 01:03:00,66.0,64.0,30.13,SSW,198,0.0,0.0,93,0.00,,,0.02,,2013-08-22 05:03:00,
2013-08-22 01:13:00,66.0,64.0,30.13,SSW,198,0.0,0.0,93,0.00,,,0.02,,2013-08-22 05:13:00,
2013-08-22 01:22:00,65.0,63.0,30.13,SSW,198,0.0,0.0,93,0.00,,,0.02,,2013-08-22 05:22:00,
2013-08-22 01:43:00,65.0,63.0,30.14,SSW,198,0.0,0.0,93,0.00,,,0.02,,2013-08-22 05:43:00,
2013-08-22 01:52:00,65.0,63.0,30.14,SSW,198,0.0,0.0,93,0.00,,,0.02,,2013-08-22 05:52:00,
2013-08-22 02:12:00,65.0,63.0,30.14,SSW,198,0.0,0.0,93,0.00,,,0.02,,2013-08-22 06:12:00,
2013-08-22 02:22:00,65.0,63.0,30.14,SSW,198,0.0,0.0,93,0.00,,,0.02,,2013-08-22 06:22:00,
2013-08-22 02:42:00,65.0,63.0,30.14,SSW,198,0.0,0.0,93,0.00,,,0.02,,2013-08-22 06:42:00,
2013-08-22 02:52:00,65.0,63.0,30.14,SSW,198,0.0,0.0,93,0.00,,,0.02,,2013-08-22 06:52:00,
2013-08-22 03:12:00,65.0,63.0,30.14,SSW,198,0.0,0.0,93,0.00,,,0.02,,2013-08-22 07:12:00,
2013-08-22 03:22:00,65.0,63.0,30.14,SSW,198,0.0,0.0,93,0.00,,,0.02,,2013-08-22 07:22:00,
2013-08-22 03:42:00,65.0,63.0,30.13,SSW,198,0.0,0.0,94,0.00,,,0.02,,2013-08-22 07:42:00,
2013-08-22 03:53:00,65.0,63.0,30.13,SSW,198,0.0,0.0,94,0.00,,,0.02,,2013-08-22 07:53:00,
2013-08-22 04:12:00,65.0,63.0,30.13,SSW,198,0.0,0.0,94,0.00,,,0.02,,2013-08-22 08:12:00,
2013-08-22 04:23:00,65.0,63.0,30.13,SSW,198,0.0,0.0,94,0.00,,,0.02,,2013-08-22 08:23:00,
2013-08-22 04:53:00,65.0,63.0,30.12,SSW,198,0.0,0.0,94,0.00,,,0.02,,2013-08-22 08:53:00,
2013-08-22 05:11:00,65.0,63.0,30.12,SSW,198,0.0,0.0,94,0.00,,,0.02,,2013-08-22 09:11:00,
2013-08-22 05:22:00,65.0,63.0,30.13,SSW,198,0.0,0.0,94,0.00,,,0.02,,2013-08-22 09:22:00,
2013-08-22 05:53:00,65.0,63.0,30.12,SSW,198,0.0,0.0,94,0.00,,,0.02,,2013-08-22 09:53:00,
2013-08-22 06:12:00,65.0,63.0,30.12,SSW,198,0.0,0.0,94,0.00,,,0.02,,2013-08-22 10:12:00,
2013-08-22 06:23:00,65.0,63.0,30.12,SSW,198,0.0,0.0,94,0.00,,,0.02,,2013-08-22 10:23:00,
2013-08-22 06:27:00,64.0,62.0,30.12,SSW,198,0.0,0.0,94,0.00,,,0.02,,2013-08-22 10:27:00,
2013-08-22 06:42:00,64.0,62.0,30.12,SSW,198,0.0,0.0,94,0.00,,,0.02,,2013-08-22 10:42:00,
2013-08-22 08:52:00,65.0,64.0,30.14,SSW,198,0.0,0.0,95,0.00,,,0.02,,2013-08-22 12:52:00,
2013-08-22 09:12:00,65.0,64.0,30.14,SSW,198,0.0,0.0,95,0.00,,,0.02,,2013-08-22 13:12:00,
2013-08-22 09:22:00,65.0,63.0,30.14,SSW,198,0.0,0.0,94,0.00,,,0.02,,2013-08-22 13:22:00,
2013-08-22 09:52:00,66.0,65.0,30.15,SSW,198,0.0,0.0,95,0.00,,,0.02,,2013-08-22 13:52:00,
2013-08-22 10:11:00,66.0,65.0,30.15,SSW,198,0.0,0.0,95,0.00,,,0.02,,2013-08-22 14:11:00,
2013-08-22 10:22:00,66.0,65.0,30.15,SSW,198,0.0,0.0,95,0.00,,,0.02,,2013-08-22 14:22:00,
2013-08-22 10:52:00,66.0,65.0,30.14,SSW,198,0.0,0.0,95,0.00,,,0.02,,2013-08-22 14:52:00,
2013-08-22 11:12:00,67.0,66.0,30.14,SSE,159,0.0,0.0,95,0.00,,,0.02,,2013-08-22 15:12:00,
2013-08-22 11:22:00,69.0,67.0,30.13,South,169,0.0,0.0,92,0.00,,,0.02,,2013-08-22 15:22:00,
2013-08-22 11:54:00,72.0,68.0,30.13,SE,133,0.0,0.0,87,0.00,,,0.01,,2013-08-22 15:54:00,
2013-08-22 12:14:00,72.0,69.0,30.13,SSE,167,0.0,0.0,89,0.00,,,0.01,,2013-08-22 16:14:00,
2013-08-22 12:25:00,73.0,69.0,30.13,SSE,147,0.0,0.0,87,0.00,,,0.01,,2013-08-22 16:25:00,
2013-08-22 12:54:00,73.0,69.0,30.11,SSE,161,0.0,0.0,88,0.00,,,0.01,,2013-08-22 16:54:00,
2013-08-22 13:12:00,77.0,71.0,30.10,ESE,115,0.0,0.0,83,0.00,,,0.01,,2013-08-22 17:12:00,
2013-08-22 13:24:00,77.0,71.0,30.10,ESE,115,0.0,0.0,83,0.00,,,0.01,,2013-08-22 17:24:00,
2013-08-22 13:53:00,75.0,69.0,30.09,South,169,0.0,0.0,83,0.00,,,0.01,,2013-08-22 17:53:00,
2013-08-22 14:12:00,77.0,72.0,30.09,South,177,0.0,0.0,86,0.00,,,0.01,,2013-08-22 18:12:00,
2013-08-22 14:22:00,77.0,72.0,30.08,SSE,165,0.0,0.0,84,0.00,,,0.01,,2013-08-22 18:22:00,
2013-08-22 14:52:00,79.0,69.0,30.05,SE,130,0.0,0.0,72,0.00,,,0.01,,2013-08-22 18:52:00,
2013-08-22 15:11:00,79.0,68.0,30.04,SW,230,0.0,0.0,69,0.00,,,0.01,,2013-08-22 19:11:00,
2013-08-22 15:22:00,80.0,69.0,30.03,SSE,167,0.0,0.0,69,0.00,,,0.01,,2013-08-22 19:22:00,
2013-08-22 15:53:00,79.0,68.0,30.04,SSW,195,0.0,0.0,69,0.00,,,0.01,,2013-08-22 19:53:00,
2013-08-22 16:12:00,79.0,70.0,30.03,SE,133,0.0,0.0,74,0.00,,,0.01,,2013-08-22 20:12:00,
2013-08-22 16:23:00,79.0,70.0,30.03,SE,133,0.0,0.0,74,0.00,,,0.01,,2013-08-22 20:23:00,
2013-08-22 16:42:00,79.0,71.0,30.02,SSE,150,0.0,0.0,76,0.00,,,0.01,,2013-08-22 20:42:00,
2013-08-22 16:52:00,79.0,68.0,30.02,SW,231,0.0,0.0,70,0.00,,,0.01,,2013-08-22 20:52:00,
2013-08-22 17:03:00,79.0,68.0,30.02,SW,231,0.0,0.0,70,0.00,,,0.01,,2013-08-22 21:03:00,
2013-08-22 17:13:00,79.0,68.0,30.02,SW,231,0.0,0.0,70,0.00,,,0.01,,2013-08-22 21:13:00,
2013-08-22 17:22:00,77.0,69.0,30.01,NE,47,0.0,0.0,76,0.00,,,0.01,,2013-08-22 21:22:00,
2013-08-22 17:44:00,76.0,68.0,30.01,SW,232,0.0,0.0,77,0.00,,,0.01,,2013-08-22 21:44:00,
2013-08-22 17:54:00,76.0,68.0,30.01,SW,232,0.0,0.0,77,0.00,,,0.01,,2013-08-22 21:54:00,
2013-08-22 18:13:00,76.0,69.0,30.00,WNW,294,0.0,0.0,80,0.00,,,0.01,,2013-08-22 22:13:00,
2013-08-22 18:25:00,75.0,69.0,30.00,WNW,294,0.0,0.0,83,0.00,,,0.01,,2013-08-22 22:25:00,
2013-08-22 18:42:00,74.0,69.0,30.01,WNW,294,0.0,0.0,84,0.00,,,0.01,,2013-08-22 22:42:00,
2013-08-22 18:53:00,74.0,70.0,30.00,West,275,0.0,0.0,86,0.00,,,0.01,,2013-08-22 22:53:00,
2013-08-22 19:12:00,73.0,69.0,30.01,West,275,0.0,0.0,88,0.00,,,0.01,,2013-08-22 23:12:00,
2013-08-22 19:23:00,73.0,69.0,30.01,West,275,0.0,0.0,88,0.00,,,0.01,,2013-08-22 23:23:00,
2013-08-22 19:33:00,73.0,69.0,30.01,West,275,0.0,0.0,88,0.00,,,0.01,,2013-08-22 23:33:00,
2013-08-22 19:53:00,72.0,68.0,30.01,ESE,123,0.0,0.0,88,0.00,,,0.01,,2013-08-22 23:53:00,
2013-08-22 20:12:00,72.0,69.0,30.01,ESE,123,0.0,0.0,89,0.00,,,0.01,,2013-08-23 00:12:00,
2013-08-22 20:23:00,71.0,68.0,30.02,ESE,123,0.0,0.0,89,0.00,,,0.00,,2013-08-23 00:23:00,
2013-08-22 20:42:00,71.0,68.0,30.02,ESE,123,0.0,0.0,90,0.00,,,0.00,,2013-08-23 00:42:00,
2013-08-22 20:52:00,70.0,67.0,30.02,ESE,123,0.0,0.0,90,0.00,,,0.00,,2013-08-23 00:52:00,
2013-08-22 21:11:00,70.0,67.0,30.03,NNW,329,0.0,0.0,90,0.00,,,0.00,,2013-08-23 01:11:00,
2013-08-22 21:22:00,69.0,66.0,30.03,NNW,329,0.0,0.0,90,0.00,,,0.00,,2013-08-23 01:22:00,
2013-08-22 21:42:00,69.0,66.0,30.02,NNW,329,0.0,0.0,91,0.00,,,0.00,,2013-08-23 01:42:00,
2013-08-22 21:52:00,69.0,66.0,30.02,NNW,329,0.0,0.0,91,0.00,,,0.00,,2013-08-23 01:52:00,
2013-08-22 22:11:00,69.0,66.0,30.03,NNW,329,0.0,0.0,91,0.00,,,0.00,,2013-08-23 02:11:00,
2013-08-22 22:23:00,69.0,66.0,30.03,NNW,329,0.0,0.0,91,0.00,,,0.00,,2013-08-23 02:23:00,
2013-08-22 22:43:00,69.0,67.0,30.04,NNW,329,0.0,0.0,92,0.00,,,0.00,,2013-08-23 02:43:00,
2013-08-22 22:52:00,69.0,67.0,30.04,NNW,329,0.0,0.0,92,0.00,,,0.00,,2013-08-23 02:52:00,
2013-08-22 23:12:00,68.0,65.0,30.04,NNW,329,0.0,0.0,91,0.00,,,0.00,,2013-08-23 03:12:00,
2013-08-22 23:23:00,68.0,66.0,30.04,NNW,329,0.0,0.0,92,0.00,,,0.00,,2013-08-23 03:23:00,
2013-08-22 23:55:00,67.0,64.0,30.04,NNW,329,0.0,0.0,91,0.00,,,0.00,,2013-08-23 03:55:00,